Content
SEND FEEDBACK

Daily
Averages
Monthly
Summary
United States of America

HAZLETON, PENNSYLVANIA


Home > North America > United States > Pennsylvania
Elevation: 1785 feet     Latitude: 41 01N     Longitude: 075 54W

WEATHER
 
SELECT A DAY
Number of Records: 218,565;   Date Range: 1/1/95 - 10/24/14
 
SHARE

PRINT THIS DATA

[ ← Previous Day ]
WEATHER ALMANAC - AUGUST 7, 2014
[ Next Day → ]
[ °C ]   °F
Weather ElementAverageHighLow
Temperature66.8 °F80.1 °F (3:54 pm)54 °F (3:54 am)
Dewpoint49 °F55 °F (10:54 am)43 °F (6:54 pm)
Humidity56.5 %86 % (4:54 am)29 % (3:54 pm)
Barometer30.00 in30.06 in (10:54 pm)29.96 in (1:54 am)
Wind Speed5.8 mph13.8 mph (5:54 pm)
Wind Gust26.5 mph (4:54 pm)
Weather ElementAverage
Visibility10 mi
Wind DirectionSSE (159.1 °)

Weather ElementTotal
Precipitation---
Cooling Degree Days2.1 (Base 65)
Growing Degree Days17.1 (Base 50)
Averaged from 23 records on August 7, 2014
WEATHER CONDITIONS BREAKOUT
WIND DIRECTION BREAKOUT
WEATHER BY HOUR - AUGUST 7, 2014
[ °C ]   °F
Local TimeTemperatureDewpointHumidityBarometerVisibilityWind DirectionWind SpeedGust SpeedPrecipitationEventsConditions
1:54 AM57.0 °F50.0 °F77 %29.96 in10.0 miCalmClear
2:54 AM55.9 °F50.0 °F80 %29.97 in10.0 miCalmClear
3:54 AM54.0 °F48.9 °F83 %29.97 in10.0 miCalmClear
4:54 AM54.0 °F50.0 °F86 %29.97 in10.0 miCalmClear
5:54 AM55.0 °F48.9 °F80 %29.98 in10.0 miESE (110°)5.8 mphClear
6:54 AM54.0 °F50.0 °F86 %29.99 in10.0 miCalmClear
7:54 AM59.0 °F51.1 °F75 %30.01 in10.0 miCalmClear
8:54 AM64.9 °F53.1 °F65 %30.01 in10.0 miWSW (250°)3.5 mphClear
9:54 AM69.1 °F53.1 °F57 %30.00 in10.0 miNW (320°)9.2 mphClear
10:54 AM71.1 °F55.0 °F57 %30.01 in10.0 miVariable6.9 mphPartly Cloudy
11:54 AM75.0 °F55.0 °F50 %30.01 in10.0 miVariable6.9 mph16.1 mphScattered Clouds
12:54 PM75.9 °F53.1 °F45 %30.00 in10.0 miNorth (350°)12.7 mph18.4 mphMostly Cloudy
1:54 PM78.1 °F50.0 °F37 %29.98 in10.0 miNW (320°)10.4 mph17.3 mphPartly Cloudy
2:54 PM77.0 °F48.9 °F37 %29.98 in10.0 miNNW (330°)11.5 mphMostly Cloudy
3:54 PM80.1 °F45.0 °F29 %29.96 in10.0 miNNW (330°)12.7 mphPartly Cloudy
4:54 PM80.1 °F45.0 °F29 %29.97 in10.0 miNNW (330°)12.7 mph26.5 mphPartly Cloudy
5:54 PM77.0 °F45.0 °F32 %29.98 in10.0 miNNW (330°)13.8 mphClear
6:54 PM75.0 °F43.0 °F32 %30.00 in10.0 miNW (320°)13.8 mph18.4 mphClear
7:54 PM71.1 °F44.1 °F38 %30.02 in10.0 miNNW (330°)8.1 mphClear
8:54 PM69.1 °F46.0 °F44 %30.03 in10.0 miNNW (340°)5.8 mphClear
9:54 PM63.0 °F46.9 °F56 %30.04 in10.0 miCalmClear
10:54 PM60.1 °F46.9 °F62 %30.06 in10.0 miCalmClear
11:54 PM61.0 °F48.0 °F62 %30.06 in10.0 miCalmClear
Hourly data recorded from KAVP, located miles away from Hazleton, Pennsylvania







STORIES FROM OUR PARTNERS